Location: Clifton Park
(41.4873°N, 81.8024°W)
Time: 21:30:57
(UTC+00:00)

Cosmos 44 - Pass Details

Date: 21 January 2020
Orbit: 595 x 767 km, 65.1° (Epoch: 16 February)

Event Time Altitude Azimuth Distance (km) Brightness Sun altitude
Rises 00:04:21 0° 198° (SSW) 2,987 7.0 -17.9°
Reaches altitude 10° 00:06:45 10° 193° (SSW) 2,051 6.0 -18.3°
Maximum altitude 00:11:14 51° 118° (ESE) 793 3.2 -19.2°
Enters shadow 00:12:04 44° 81° (E) 865 3.3 -19.3°
